Weather History for Montpelier, VT

Change the Weather History Date:

Wednesday, February 13, 2013

  Actual Average Record
Temperature  
Mean Temperature 29 °F 19 °F  
Max Temperature 33 °F 30 °F 53 °F (1984)
Min Temperature 24 °F 9 °F -29 °F (1967)
Degree Days  
Heating Degree Days 36 46  
Month to date heating degree days 645 608  
Since 1 July heating degree days 4990 5253  
Moisture  
Dew Point 21 °F    
Average Humidity 66    
Maximum Humidity 85    
Minimum Humidity 47    
Precipitation  
Precipitation 0.00 in 0.08 in 1.05 in (1966)
Month to date precipitation 0.60 0.99  
Year to date precipitation 1.55 3.44  
Sea Level Pressure  
Sea Level Pressure 29.83 in    
Wind  
Wind Speed 1 mph (WNW)    
Max Wind Speed 10 mph    
Max Gust Speed 14 mph    
Visibility 10 miles    
Events      
T = Trace of Precipitation, MM = Missing Value Source: NWS Daily Summary

Daily Weather History Graph

Daily Weather History Graph

Search for Another Location

Airport:

Trip Planner

Search our weather history database for the weather conditions in past years. The results will help you decide how hot, cold, wet, or windy it might be!

Date:

Astronomy

Feb. 13, 2013 Rise Set
Actual Time 6:52 AM EST 5:17 PM EST
Civil Twilight 6:22 AM EST 5:47 PM EST
Nautical Twilight 5:48 AM EST 6:21 PM EST
Astronomical Twilight 5:14 AM EST 6:54 PM EST
Moon 8:10 AM EST (2/13) 9:28 PM EST (2/13)
Length of Visible Light 11h 24m
Length of Day
10h 24m
Waxing Crescent, 13% of the Moon is Illuminated
Feb 13
Waxing Crescent
Feb 17
First Quarter
Feb 25
Full
Mar 4
Last Quarter
Mar 11
New

Hourly Weather History & Observations

Time (EST) Temp. Windchill Dew Point Humidity Pressure Visibility Wind Dir Wind Speed Gust Speed Precip Events Conditions
12:51 AM 28.9 °F 21.9 °F 21.9 °F 75% 29.86 in 10.0 mi West 6.9 mph - 0.00 in   Overcast
1:51 AM 28.0 °F - 23.0 °F 81% 29.86 in 10.0 mi Calm Calm - N/A   Overcast
2:51 AM 26.1 °F - 23.0 °F 88% 29.86 in 10.0 mi Calm Calm - N/A   Overcast
3:51 AM 28.0 °F 24.2 °F 21.0 °F 75% 29.86 in 10.0 mi West 3.5 mph - N/A   Overcast
4:51 AM 28.0 °F 22.8 °F 21.0 °F 75% 29.87 in 10.0 mi WNW 4.6 mph - N/A   Overcast
5:51 AM 27.0 °F - 21.0 °F 78% 29.86 in 10.0 mi Calm Calm - N/A   Overcast
6:01 AM 28.4 °F - 21.2 °F 74% 29.81 in 10.0 mi Calm Calm - N/A   Overcast
6:51 AM 27.0 °F - 21.0 °F 78% 29.87 in 10.0 mi Calm Calm - N/A   Overcast
7:51 AM 28.0 °F - 21.9 °F 78% 29.87 in 10.0 mi Calm Calm - N/A   Overcast
8:51 AM 28.9 °F - 21.9 °F 75% 29.87 in 10.0 mi Calm Calm - N/A   Overcast
9:51 AM 28.9 °F - 21.9 °F 75% 29.88 in 10.0 mi Calm Calm - N/A   Overcast
10:07 AM 28.4 °F - 21.2 °F 74% 29.82 in 8.0 mi Calm Calm - N/A   Overcast
10:51 AM 30.0 °F - 21.0 °F 69% 29.86 in 10.0 mi Calm Calm - N/A   Overcast
11:51 AM 33.1 °F 27.7 °F 19.0 °F 56% 29.83 in 10.0 mi Variable 5.8 mph - N/A   Overcast
12:51 PM 32.0 °F - 19.9 °F 61% 29.83 in 10.0 mi Calm Calm - N/A   Overcast
1:51 PM 33.1 °F - 16.0 °F 50% 29.81 in 10.0 mi Calm Calm - N/A   Overcast
2:51 PM 33.1 °F 28.7 °F 18.0 °F 54% 29.81 in 10.0 mi NW 4.6 mph - N/A   Overcast
3:51 PM 32.0 °F - 19.0 °F 59% 29.80 in 10.0 mi Calm Calm - N/A   Overcast
4:51 PM 30.9 °F - 19.9 °F 64% 29.79 in 10.0 mi Calm Calm - N/A   Overcast
5:51 PM 30.0 °F - 23.0 °F 75% 29.80 in 10.0 mi Calm Calm - N/A   Overcast
6:51 PM 28.9 °F - 23.0 °F 78% 29.80 in 10.0 mi Calm Calm - N/A   Overcast
7:51 PM 27.0 °F - 21.0 °F 78% 29.79 in 10.0 mi Calm Calm - N/A   Overcast
8:51 PM 26.1 °F - 19.9 °F 78% 29.80 in 10.0 mi Calm Calm - N/A   Overcast
9:51 PM 27.0 °F - 21.0 °F 78% 29.81 in 10.0 mi Calm Calm - N/A   Overcast
10:51 PM 27.0 °F - 21.9 °F 81% 29.80 in 10.0 mi Calm Calm - N/A   Overcast
11:51 PM 26.1 °F - 21.0 °F 81% 29.79 in 10.0 mi Calm Calm - N/A   Overcast